This is the latest recevied weather packets stored in our database for station/object KJ4HF. If no packets are shown the sender has not sent any weather packets the latest 10 day(s).
| Time | Temp. | Humidity | Pressure | Rain* | Wind** | Luminosity | Snow |
|---|---|---|---|---|---|---|---|
| 1778158541 | 17.78° C | 98% | 1010.2 hPa | 1.52 mm | - | 46 W/m² | - |
| 1778157344 | 17.78° C | 98% | 1011.1 hPa | 1.02 mm | - | 51 W/m² | - |
| 1778156443 | 17.78° C | 98% | 1011.4 hPa | 0.76 mm | - | 18 W/m² | - |
| 1778153454 | 17.22° C | 97% | 1010.2 hPa | 0.25 mm | - | 21 W/m² | - |
| 1778151343 | 17.22° C | 97% | 1009.8 hPa | 0 mm | - | 0 W/m² | - |
| 1778149543 | 17.22° C | 97% | 1010 hPa | 0.25 mm | - | 0 W/m² | - |
| 1778148949 | 17.22° C | 97% | 1010 hPa | 0.25 mm | - | 0 W/m² | - |
| 1778147441 | 17.22° C | 97% | 1009.9 hPa | 0.25 mm | - | 0 W/m² | - |
| 1778146843 | 17.22° C | 97% | 1010 hPa | 0 mm | - | 0 W/m² | - |
| 1778145045 | 17.22° C | 97% | 1009.9 hPa | 0.25 mm | - | 0 W/m² | - |
| 1778143243 | 17.22° C | 97% | 1009.9 hPa | 0.25 mm | - | 0 W/m² | - |
| 1778142943 | 17.22° C | 97% | 1009.8 hPa | 0 mm | - | 0 W/m² | - |
| 1778142650 | 17.22° C | 97% | 1009.9 hPa | 0.25 mm | - | 0 W/m² | - |
| 1778141443 | 17.22° C | 97% | 1010 hPa | 0.25 mm | - | 0 W/m² | - |
| 1778139644 | 17.22° C | 97% | 1010.3 hPa | 1.02 mm | - | 0 W/m² | - |
| 1778138743 | 17.22° C | 97% | 1011.1 hPa | 0.76 mm | - | 0 W/m² | - |
| 1778137252 | 17.22° C | 97% | 1011.1 hPa | 1.02 mm | - | 0 W/m² | - |
| 1778132440 | 17.22° C | 97% | 1012.4 hPa | 0.76 mm | - | 0 W/m² | - |
| 1778131241 | 17.22° C | 96% | 1012.5 hPa | 0 mm | - | 0 W/m² | - |
| 1778130960 | 17.22° C | 96% | 1012.4 hPa | 0 mm | - | 0 W/m² | - |
| 1778127944 | 17.22° C | 96% | 1012.6 hPa | 0.25 mm | - | 0 W/m² | - |
| 1778126454 | 17.22° C | 96% | 1012 hPa | 5.08 mm | - | 0 W/m² | - |
| 1778125244 | 17.22° C | 95% | 1011.1 hPa | 5.84 mm | - | 0 W/m² | - |
| 1778124344 | 17.22° C | 95% | 1013.8 hPa | 6.1 mm | - | 0 W/m² | - |
| 1778122543 | 17.78° C | 95% | 1013.7 hPa | 1.52 mm | - | 0 W/m² | - |
* Rain latest hour (hover to see other rain measurements)
** Current wind speed in m/s (hover to see current wind gust speed)